Tracking 35237 objects as of 6-Sep-2026
HD Live streaming from Space Station
objects crossing your sky now

ATLAS 2 CENTAUR R/B

Track ATLAS 2 CENTAUR R/B now!
10-day predictions


NORAD ID: 23468
Int'l Code: 1995-003B
Launch date: January 29, 1995
Source: United States (US)
Launch site: AIR FORCE EASTERN TEST RANGE (AFETR)

Note: This is a ROCKET BODY
Your satellite tracking list
Your tracking list is empty




NASA's NSSDC Master Catalog

Two Line Element Set (TLE):
1 23468U 95003B   26248.80686592  .00005933  00000-0  10614-2 0  9990
2 23468  26.6016 189.0527 5684426  71.5571 340.1273  4.52306694421252
Source of the keplerian elements: AFSPC